| time (UTC) | temp F | wind direction | speed knots | gust knots | rain 1hr in | rain 24hr in | rain mn in | humidity % | barometer mb |
| 20260503212003 | 80 | 315 | 2.6 | 8.7 | 0.00 | 0.00 | 0.00 | 35 | 1010.7 |
| 20260503211503 | 80 | 330 | 2.6 | 8.7 | 0.00 | 0.00 | 0.00 | 34 | 1011.0 |
| 20260503211003 | 80 | 354 | 1.7 | 5.2 | 0.00 | 0.00 | 0.00 | 34 | 1010.7 |
| 20260503210503 | 79 | 313 | 2.6 | 7.0 | 0.00 | 0.00 | 0.00 | 35 | 1011.0 |
| 20260503210003 | 79 | 319 | 2.6 | 7.0 | 0.00 | 0.00 | 0.00 | 35 | 1010.7 |
| 20260503205503 | 79 | 324 | 2.6 | 7.0 | 0.00 | 0.00 | 0.00 | 35 | 1011.0 |
| 20260503205003 | 78 | 331 | 2.6 | 7.0 | 0.00 | 0.00 | 0.00 | 35 | 1011.0 |
| 20260503204503 | 79 | 328 | 2.6 | 5.2 | 0.00 | 0.00 | 0.00 | 35 | 1011.0 |
| 20260503204218 | 79 | 333 | 2.6 | 5.2 | 0.00 | 0.00 | 0.00 | 33 | 1011.4 |
| 20260503203503 | 79 | 313 | 2.6 | 7.8 | 0.00 | 0.00 | 0.00 | 35 | 1011.4 |
| 20260503203003 | 78 | 315 | 2.6 | 7.8 | 0.00 | 0.00 | 0.00 | 36 | 1011.4 |
| 20260503202503 | 78 | 330 | 2.6 | 7.0 | 0.00 | 0.00 | 0.00 | 37 | 1011.7 |
| 20260503202003 | 78 | 358 | 2.6 | 7.0 | 0.00 | 0.00 | 0.00 | 37 | 1011.4 |
| 20260503201503 | 78 | 4 | 2.6 | 8.7 | 0.00 | 0.00 | 0.00 | 37 | 1011.7 |
| 20260503201003 | 77 | 27 | 3.5 | 9.6 | 0.00 | 0.00 | 0.00 | 38 | 1011.7 |
| 20260503200503 | 77 | 61 | 1.7 | 9.6 | 0.00 | 0.00 | 0.00 | 38 | 1011.4 |
| 20260503200218 | 78 | 53 | 1.7 | 7.0 | 0.00 | 0.00 | 0.00 | 38 | 1011.4 |
| 20260503195503 | 77 | 75 | 2.6 | 8.7 | 0.00 | 0.00 | 0.00 | 40 | 1011.7 |
| 20260503195003 | 76 | 50 | 2.6 | 8.7 | 0.00 | 0.00 | 0.00 | 41 | 1011.7 |
| 20260503194503 | 76 | 346 | 2.6 | 7.8 | 0.00 | 0.00 | 0.00 | 41 | 1012.1 |
| 20260503194218 | 77 | 347 | 1.7 | 5.2 | 0.00 | 0.00 | 0.00 | 40 | 1012.1 |
| 20260503193503 | 76 | 333 | 2.6 | 7.8 | 0.00 | 0.00 | 0.00 | 42 | 1012.1 |
| 20260503193003 | 75 | 300 | 2.6 | 8.7 | 0.00 | 0.00 | 0.00 | 43 | 1012.1 |
| 20260503192503 | 74 | 302 | 3.5 | 8.7 | 0.00 | 0.00 | 0.00 | 43 | 1012.4 |
| 20260503192003 | 74 | 316 | 2.6 | 6.1 | 0.00 | 0.00 | 0.00 | 44 | 1012.1 |
| 20260503191503 | 74 | 329 | 2.6 | 7.8 | 0.00 | 0.00 | 0.00 | 43 | 1012.4 |
| 20260503191003 | 73 | 320 | 2.6 | 7.8 | 0.00 | 0.00 | 0.00 | 44 | 1012.4 |
| 20260503190503 | 74 | 310 | 2.6 | 7.8 | 0.00 | 0.00 | 0.00 | 43 | 1012.4 |
| 20260503190003 | 74 | 313 | 2.6 | 6.1 | 0.00 | 0.00 | 0.00 | 44 | 1012.4 |
| 20260503185716 | 74 | 307 | 1.7 | 5.2 | 0.00 | 0.00 | 0.00 | 43 | 1012.4 |
| 20260503185003 | 74 | 355 | 2.6 | 7.8 | 0.00 | 0.00 | 0.00 | 43 | 1012.4 |
| 20260503184503 | 74 | 360 | 2.6 | 7.8 | 0.00 | 0.00 | 0.00 | 43 | 1012.4 |
| 20260503184003 | 73 | 338 | 2.6 | 7.0 | 0.00 | 0.00 | 0.00 | 45 | 1012.7 |
| 20260503183503 | 73 | 352 | 2.6 | 7.0 | 0.00 | 0.00 | 0.00 | 44 | 1012.7 |
| 20260503183003 | 73 | 328 | 1.7 | 5.2 | 0.00 | 0.00 | 0.00 | 45 | 1012.7 |
| 20260503182503 | 72 | 305 | 2.6 | 6.1 | 0.00 | 0.00 | 0.00 | 45 | 1012.7 |
| 20260503182003 | 72 | 336 | 2.6 | 7.0 | 0.00 | 0.00 | 0.00 | 46 | 1012.7 |
| 20260503181504 | 72 | 312 | 3.5 | 7.8 | 0.00 | 0.00 | 0.00 | 46 | 1012.7 |
| 20260503181003 | 71 | 288 | 2.6 | 7.8 | 0.00 | 0.00 | 0.00 | 46 | 1013.1 |
| 20260503180503 | 72 | 330 | 2.6 | 7.0 | 0.00 | 0.00 | 0.00 | 46 | 1013.1 |
| 20260503180003 | 72 | 340 | 2.6 | 7.8 | 0.00 | 0.00 | 0.00 | 46 | 1012.7 |
| 20260503175503 | 72 | 352 | 2.6 | 7.8 | 0.00 | 0.00 | 0.00 | 45 | 1012.7 |
| 20260503175003 | 72 | 80 | 2.6 | 5.2 | 0.00 | 0.00 | 0.00 | 46 | 1013.1 |
| 20260503174503 | 71 | 349 | 2.6 | 6.1 | 0.00 | 0.00 | 0.00 | 47 | 1013.1 |
| 20260503174003 | 71 | 324 | 2.6 | 9.6 | 0.00 | 0.00 | 0.00 | 48 | 1013.1 |
| 20260503173503 | 71 | 317 | 2.6 | 9.6 | 0.00 | 0.00 | 0.00 | 50 | 1013.1 |
| 20260503173217 | 71 | 309 | 2.6 | 5.2 | 0.00 | 0.00 | 0.00 | 48 | 1012.7 |
| 20260503172503 | 70 | 318 | 2.6 | 6.1 | 0.00 | 0.00 | 0.00 | 48 | 1013.1 |
| 20260503172003 | 71 | 6 | 1.7 | 6.1 | 0.00 | 0.00 | 0.00 | 48 | 1013.1 |
| 20260503171503 | 71 | 37 | 1.7 | 4.3 | 0.00 | 0.00 | 0.00 | 48 | 1013.4 |
| 20260503171003 | 70 | 20 | 1.7 | 3.5 | 0.00 | 0.00 | 0.00 | 52 | 1013.4 |
| 20260503170503 | 69 | 315 | 1.7 | 5.2 | 0.00 | 0.00 | 0.00 | 53 | 1013.4 |
| 20260503151003 | 60 | 82 | 3.5 | 4.3 | 0.00 | 0.00 | 0.00 | 72 | 1013.4 |
| 20260503150503 | 59 | 85 | 3.5 | 4.3 | 0.00 | 0.00 | 0.00 | 72 | 1013.8 |
| 20260503131217 | 50 | 104 | 1.7 | 3.5 | 0.00 | 0.00 | 0.00 | 89 | 1013.4 |
| 20260503130503 | 50 | 74 | 1.7 | 3.5 | 0.00 | 0.00 | 0.00 | 89 | 1013.4 |
| 20260503110503 | 52 | 100 | 1.7 | 2.6 | 0.00 | 0.00 | 0.00 | 81 | 1013.8 |
| 20260503100218 | 53 | 70 | 1.7 | 2.6 | 0.00 | 0.00 | 0.00 | 78 | 1013.8 |
| 20260503090503 | 54 | 72 | 1.7 | 1.7 | 0.00 | 0.00 | 0.00 | 77 | 1013.8 |
| 20260503081503 | 55 | 83 | 0.9 | 1.7 | 0.00 | 0.00 | 0.00 | 72 | 1013.8 |
| 20260503081003 | 55 | 83 | 0.9 | 1.7 | 0.00 | 0.00 | 0.00 | 72 | 1013.8 |
| 20260503080503 | 55 | 82 | 0.9 | 1.7 | 0.00 | 0.00 | 0.00 | 72 | 1013.8 |
| 20260503072503 | 55 | 91 | 0.9 | 1.7 | 0.00 | 0.00 | 0.00 | 73 | 1013.8 |
| 20260503072003 | 55 | 90 | 1.7 | 3.5 | 0.00 | 0.00 | 0.00 | 72 | 1013.8 |
| 20260503071503 | 55 | 90 | 1.7 | 3.5 | 0.00 | 0.00 | 0.00 | 72 | 1013.8 |
| 20260503071003 | 55 | 89 | 1.7 | 3.5 | 0.00 | 0.00 | 0.00 | 73 | 1013.8 |
| 20260503070503 | 56 | 86 | 1.7 | 1.7 | 0.00 | 0.00 | 0.00 | 71 | 1013.4 |
| 20260503054503 | 59 | 86 | 1.7 | 2.6 | 0.00 | 0.00 | 0.00 | 63 | 1013.4 |
| 20260503054003 | 60 | 84 | 1.7 | 2.6 | 0.00 | 0.00 | 0.00 | 61 | 1013.8 |
| 20260503053717 | 60 | 82 | 1.7 | 2.6 | 0.00 | 0.00 | 0.00 | 59 | 1013.4 |
| 20260503053003 | 60 | 67 | 0.0 | 1.7 | 0.00 | 0.00 | 0.00 | 58 | 1013.4 |
| 20260503052717 | 60 | 66 | 0.0 | 1.7 | 0.00 | 0.00 | 0.00 | 58 | 1013.4 |
| 20260503052003 | 60 | 71 | 0.9 | 1.7 | 0.00 | 0.00 | 0.00 | 59 | 1013.8 |
| 20260503051503 | 61 | 73 | 1.7 | 1.7 | 0.00 | 0.00 | 0.00 | 58 | 1013.8 |
| 20260503051003 | 61 | 75 | 0.9 | 1.7 | 0.00 | 0.00 | 0.00 | 57 | 1013.8 |
| 20260503050717 | 61 | 78 | 0.9 | 1.7 | 0.00 | 0.00 | 0.00 | 56 | 1013.4 |
| 20260503050003 | 62 | 83 | 0.9 | 1.7 | 0.00 | 0.00 | 0.00 | 56 | 1013.4 |
| 20260503045503 | 62 | 86 | 0.9 | 1.7 | 0.00 | 0.00 | 0.00 | 56 | 1013.8 |
| 20260503045218 | 62 | 85 | 0.9 | 1.7 | 0.00 | 0.00 | 0.00 | 55 | 1013.4 |
| 20260503044503 | 63 | 75 | 0.9 | 1.7 | 0.00 | 0.00 | 0.00 | 54 | 1013.4 |
| 20260503044003 | 63 | 76 | 0.9 | 1.7 | 0.00 | 0.00 | 0.00 | 53 | 1013.4 |
| 20260503043717 | 63 | 73 | 0.0 | 1.7 | 0.00 | 0.00 | 0.00 | 53 | 1013.4 |
| 20260503043003 | 63 | 83 | 0.0 | 1.7 | 0.00 | 0.00 | 0.00 | 54 | 1013.1 |
| 20260503042503 | 64 | 72 | 0.0 | 1.7 | 0.00 | 0.00 | 0.00 | 53 | 1013.1 |
| 20260503042003 | 64 | 79 | 0.9 | 1.7 | 0.00 | 0.00 | 0.00 | 52 | 1013.1 |
| 20260503041717 | 64 | 86 | 0.9 | 1.7 | 0.00 | 0.00 | 0.00 | 51 | 1013.1 |
| 20260503041003 | 65 | 96 | 0.9 | 1.7 | 0.00 | 0.00 | 0.00 | 50 | 1013.1 |
| 20260503040503 | 66 | 83 | 0.9 | 1.7 | 0.00 | 0.00 | 0.00 | 47 | 1012.7 |
| 20260503040218 | 66 | 80 | 0.9 | 1.7 | 0.00 | 0.00 | 0.00 | 48 | 1013.1 |
| 20260503035503 | 67 | 82 | 1.7 | 2.6 | 0.00 | 0.00 | 0.00 | 46 | 1012.7 |
| 20260503035003 | 67 | 61 | 1.7 | 3.5 | 0.00 | 0.00 | 0.00 | 45 | 1012.4 |
| 20260503034503 | 67 | 61 | 1.7 | 3.5 | 0.00 | 0.00 | 0.00 | 45 | 1012.7 |
| 20260503034003 | 67 | 52 | 1.7 | 3.5 | 0.00 | 0.00 | 0.00 | 45 | 1012.7 |
| 20260503033503 | 68 | 41 | 1.7 | 3.5 | 0.00 | 0.00 | 0.00 | 45 | 1012.4 |
| 20260503033003 | 68 | 64 | 1.7 | 2.6 | 0.00 | 0.00 | 0.00 | 44 | 1012.4 |
| 20260503032716 | 68 | 73 | 1.7 | 3.5 | 0.00 | 0.00 | 0.00 | 44 | 1012.4 |
| 20260503032003 | 68 | 53 | 1.7 | 3.5 | 0.00 | 0.00 | 0.00 | 44 | 1012.4 |
| 20260503031503 | 68 | 28 | 1.7 | 4.3 | 0.00 | 0.00 | 0.00 | 43 | 1012.1 |
| 20260503031003 | 69 | 33 | 1.7 | 4.3 | 0.00 | 0.00 | 0.00 | 43 | 1012.4 |
| 20260503030503 | 69 | 24 | 1.7 | 8.7 | 0.00 | 0.00 | 0.00 | 43 | 1012.1 |
| 20260503030217 | 69 | 25 | 1.7 | 8.7 | 0.00 | 0.00 | 0.00 | 43 | 1012.1 |
| 20260503025503 | 70 | 37 | 0.9 | 3.5 | 0.00 | 0.00 | 0.00 | 43 | 1012.1 |
| 20260503025003 | 70 | 48 | 1.7 | 3.5 | 0.00 | 0.00 | 0.00 | 43 | 1012.4 |
| 20260503024503 | 70 | 50 | 1.7 | 3.5 | 0.00 | 0.00 | 0.00 | 43 | 1012.1 |
| 20260503024003 | 70 | 27 | 1.7 | 4.3 | 0.00 | 0.00 | 0.00 | 43 | 1012.1 |
| 20260503023503 | 70 | 357 | 2.6 | 8.7 | 0.00 | 0.00 | 0.00 | 43 | 1012.1 |
| 20260503023003 | 71 | 6 | 3.5 | 8.7 | 0.00 | 0.00 | 0.00 | 42 | 1012.1 |
| 20260503022503 | 71 | 11 | 2.6 | 7.8 | 0.00 | 0.00 | 0.00 | 43 | 1012.1 |
| 20260503022003 | 71 | 8 | 2.6 | 7.8 | 0.00 | 0.00 | 0.00 | 43 | 1012.1 |
| 20260503021503 | 71 | 45 | 2.6 | 7.0 | 0.00 | 0.00 | 0.00 | 44 | 1012.1 |
| 20260503021003 | 72 | 75 | 1.7 | 4.3 | 0.00 | 0.00 | 0.00 | 44 | 1012.1 |
| 20260503020503 | 73 | 33 | 1.7 | 4.3 | 0.00 | 0.00 | 0.00 | 45 | 1012.1 |
| 20260503020003 | 73 | 9 | 1.7 | 4.3 | 0.00 | 0.00 | 0.00 | 44 | 1012.1 |
| 20260503015718 | 73 | 28 | 1.7 | 3.5 | 0.00 | 0.00 | 0.00 | 46 | 1012.1 |
| 20260503015003 | 73 | 335 | 2.6 | 9.6 | 0.00 | 0.00 | 0.00 | 46 | 1012.4 |
| 20260503014503 | 72 | 338 | 3.5 | 9.6 | 0.00 | 0.00 | 0.00 | 46 | 1012.4 |
| 20260503014217 | 73 | 334 | 3.5 | 9.6 | 0.00 | 0.00 | 0.00 | 46 | 1012.4 |
| 20260503013503 | 73 | 342 | 2.6 | 8.7 | 0.00 | 0.00 | 0.00 | 46 | 1012.1 |
| 20260503013003 | 74 | 352 | 2.6 | 6.1 | 0.00 | 0.00 | 0.00 | 46 | 1012.1 |
| 20260503012503 | 74 | 338 | 2.6 | 6.1 | 0.00 | 0.00 | 0.00 | 45 | 1012.1 |
| 20260503012003 | 74 | 329 | 2.6 | 7.0 | 0.00 | 0.00 | 0.00 | 45 | 1012.1 |
| 20260503011503 | 74 | 325 | 2.6 | 7.0 | 0.00 | 0.00 | 0.00 | 45 | 1012.1 |
| 20260503011003 | 74 | 333 | 2.6 | 9.6 | 0.00 | 0.00 | 0.00 | 45 | 1012.1 |
| 20260503010503 | 74 | 326 | 2.6 | 9.6 | 0.00 | 0.00 | 0.00 | 45 | 1012.4 |
| 20260503010003 | 74 | 308 | 2.6 | 10.4 | 0.00 | 0.00 | 0.00 | 46 | 1012.1 |
| 20260503005503 | 74 | 311 | 2.6 | 10.4 | 0.00 | 0.00 | 0.00 | 45 | 1012.1 |
| 20260503005003 | 74 | 335 | 2.6 | 12.2 | 0.00 | 0.00 | 0.00 | 46 | 1012.4 |
| 20260503004718 | 74 | 328 | 3.5 | 12.2 | 0.00 | 0.00 | 0.00 | 46 | 1012.4 |
| 20260503004003 | 74 | 322 | 3.5 | 10.4 | 0.00 | 0.00 | 0.00 | 46 | 1012.4 |
| 20260503003503 | 75 | 317 | 2.6 | 8.7 | 0.00 | 0.00 | 0.00 | 47 | 1012.4 |
| 20260503003003 | 75 | 316 | 3.5 | 7.8 | 0.00 | 0.00 | 0.00 | 47 | 1012.4 |
| 20260503002503 | 75 | 333 | 2.6 | 7.8 | 0.00 | 0.00 | 0.00 | 47 | 1012.4 |
| 20260503002003 | 76 | 332 | 2.6 | 7.8 | 0.00 | 0.00 | 0.00 | 47 | 1012.4 |
| 20260503001503 | 75 | 331 | 3.5 | 10.4 | 0.00 | 0.00 | 0.00 | 48 | 1012.1 |
| 20260503001003 | 74 | 322 | 4.3 | 13.0 | 0.00 | 0.00 | 0.00 | 49 | 1012.4 |
| 20260503000717 | 74 | 322 | 4.3 | 13.0 | 0.00 | 0.00 | 0.00 | 48 | 1012.4 |
| 20260503000003 | 75 | 347 | 3.5 | 8.7 | 0.00 | 0.00 | 0.00 | 47 | 1012.4 |
| 20260502235503 | 75 | 17 | 3.5 | 8.7 | 0.00 | 0.00 | 0.00 | 48 | 1012.4 |
| 20260502235003 | 75 | 33 | 2.6 | 8.7 | 0.00 | 0.00 | 0.00 | 48 | 1012.4 |
| 20260502234503 | 75 | 72 | 2.6 | 9.6 | 0.00 | 0.00 | 0.00 | 49 | 1012.4 |
| 20260502234003 | 74 | 60 | 2.6 | 9.6 | 0.00 | 0.00 | 0.00 | 51 | 1012.7 |
| 20260502233503 | 74 | 349 | 2.6 | 9.6 | 0.00 | 0.00 | 0.00 | 50 | 1012.7 |
| 20260502233003 | 74 | 358 | 2.6 | 9.6 | 0.00 | 0.00 | 0.00 | 49 | 1012.7 |
| 20260502232503 | 74 | 358 | 2.6 | 7.8 | 0.00 | 0.00 | 0.00 | 49 | 1013.1 |
| 20260502232003 | 74 | 332 | 3.5 | 9.6 | 0.00 | 0.00 | 0.00 | 49 | 1012.7 |
| 20260502231503 | 73 | 320 | 3.5 | 9.6 | 0.00 | 0.00 | 0.00 | 49 | 1013.1 |
| 20260502231003 | 73 | 317 | 3.5 | 12.2 | 0.00 | 0.00 | 0.00 | 50 | 1013.4 |
| 20260502230717 | 73 | 322 | 3.5 | 12.2 | 0.00 | 0.00 | 0.00 | 50 | 1013.4 |
| 20260502225503 | 73 | 308 | 3.5 | 9.6 | 0.00 | 0.00 | 0.00 | 48 | 1013.4 |
| 20260502225003 | 73 | 302 | 2.6 | 9.6 | 0.00 | 0.00 | 0.00 | 48 | 1013.4 |
| 20260502224503 | 74 | 313 | 3.5 | 9.6 | 0.00 | 0.00 | 0.00 | 46 | 1013.4 |
| 20260502224003 | 73 | 351 | 3.5 | 9.6 | 0.00 | 0.00 | 0.00 | 47 | 1013.4 |
| 20260502223503 | 74 | 52 | 3.5 | 9.6 | 0.00 | 0.00 | 0.00 | 46 | 1013.4 |
| 20260502223003 | 74 | 64 | 3.5 | 8.7 | 0.00 | 0.00 | 0.00 | 46 | 1013.4 |
| 20260502222503 | 74 | 43 | 2.6 | 8.7 | 0.00 | 0.00 | 0.00 | 46 | 1013.4 |
| 20260502222218 | 73 | 10 | 3.5 | 8.7 | 0.00 | 0.00 | 0.00 | 46 | 1013.4 |
| 20260502221503 | 73 | 340 | 3.5 | 8.7 | 0.00 | 0.00 | 0.00 | 45 | 1013.8 |
| 20260502221003 | 73 | 344 | 2.6 | 7.8 | 0.00 | 0.00 | 0.00 | 45 | 1013.8 |
| 20260502220503 | 73 | 356 | 3.5 | 9.6 | 0.00 | 0.00 | 0.00 | 45 | 1013.8 |
| 20260502220217 | 73 | 32 | 3.5 | 9.6 | 0.00 | 0.00 | 0.00 | 45 | 1013.8 |
| 20260502215503 | 74 | 78 | 2.6 | 7.0 | 0.00 | 0.00 | 0.00 | 45 | 1014.1 |
| 20260502215003 | 73 | 11 | 2.6 | 7.0 | 0.00 | 0.00 | 0.00 | 47 | 1013.8 |
| 20260502214503 | 72 | 357 | 2.6 | 8.7 | 0.00 | 0.00 | 0.00 | 47 | 1014.1 |
| 20260502214217 | 72 | 354 | 2.6 | 8.7 | 0.00 | 0.00 | 0.00 | 49 | 1014.1 |
| 20260502213503 | 72 | 342 | 3.5 | 12.2 | 0.00 | 0.00 | 0.00 | 52 | 1014.1 |
| 20260502213003 | 72 | 337 | 3.5 | 12.2 | 0.00 | 0.00 | 0.00 | 53 | 1014.1 |
| 20260502212503 | 71 | 331 | 4.3 | 12.2 | 0.00 | 0.00 | 0.00 | 55 | 1014.5 |